START_TIME,STEP,MOV.,H8,t_acc.,H43,t_acc.,M25,t_acc.,H9,t_acc.
1979-07-15 18:00:29.710 ,0,1,0.,12.0,0.,12.0,0.,12.0,0.,12.0
1979-07-15 18:00:41.710 ,0,1,0.,12.0,0.,12.0,0.,12.0,0.,12.0
1979-07-15 18:00:53.710 ,4,1,0.,12.0,0.,12.0,0.,12.0,0.,12.0
1979-07-15 18:01:05.710 ,4,1,0.,12.0,0.,12.0,0.,12.0,0.,12.0
1979-07-15 18:01:17.710 ,7,1,0.,12.0,0.,12.0,0.,12.0,0.,12.0
1979-07-15 18:01:29.710 ,7,1,0.,12.0,0.,12.0,0.,12.0,0.,12.0
1979-07-15 18:01:41.710 ,3,1,0.,12.0,0.,12.0,0.,12.0,0.,12.0
1979-07-15 18:01:53.710 ,3,1,0.,12.0,0.,12.0,0.,12.0,0.,12.0
1979-07-15 18:02:05.710 ,0,1,0.,12.0,0.,12.0,0.,12.0,0.,12.0
1979-07-15 18:02:17.710 ,0,1,0.,12.0,0.,12.0,0.,12.0,0.,12.0
1979-07-15 18:02:29.710 ,4,1,0.,12.0,0.,12.0,0.,12.0,0.,12.0
1979-07-15 18:02:41.710 ,4,1,0.,12.0,0.,12.0,0.,12.0,0.,12.0
1979-07-15 18:02:53.710 ,7,1,0.,12.0,0.,12.0,0.,12.0,0.,12.0
1979-07-15 18:03:05.710 ,7,1,0.,12.0,0.,12.0,0.,12.0,0.,12.0
1979-07-15 18:03:17.710 ,3,1,0.,12.0,0.,12.0,0.,12.0,0.,12.0
1979-07-15 18:03:29.710 ,3,1,0.,12.0,0.,12.0,0.,12.0,0.,12.0
1979-07-15 18:03:41.710 ,0,1,0.,12.0,0.,12.0,0.,12.0,0.,12.0
1979-07-15 18:03:53.710 ,0,1,0.,12.0,0.,12.0,0.,12.0,0.,12.0
1979-07-15 18:04:05.710 ,4,1,0.,12.0,0.,12.0,0.,12.0,0.,12.0
1979-07-15 18:04:17.710 ,4,1,0.,12.0,0.,12.0,0.,12.0,0.,12.0
1979-07-15 18:04:29.710 ,7,1,0.,12.0,0.,12.0,0.,12.0,0.,12.0
1979-07-15 18:04:41.710 ,7,1,1.,12.0,0.,12.0,0.,12.0,0.,12.0
1979-07-15 18:04:53.710 ,3,1,0.,12.0,0.,12.0,0.,12.0,0.,12.0
1979-07-15 18:05:05.710 ,3,1,0.,12.0,0.,12.0,0.,12.0,0.,12.0
1979-07-15 18:05:17.710 ,0,1,0.,12.0,0.,12.0,0.,12.0,0.,12.0
1979-07-15 18:05:29.710 ,0,1,0.,12.0,0.,12.0,0.,12.0,0.,12.0
1979-07-15 18:06:05.710 ,0,0,0.,12.0,0.,12.0,0.,12.0,0.,12.0
1979-07-15 18:06:17.710 ,0,0,0.,12.0,0.,12.0,0.,12.0,0.,12.0
1979-07-15 18:06:29.710 ,5,0,0.,12.0,0.,12.0,0.,12.0,0.,12.0
1979-07-15 18:06:41.710 ,5,0,0.,12.0,0.,12.0,0.,12.0,0.,12.0
1979-07-15 18:06:53.710 ,5,0,0.,12.0,0.,12.0,0.,12.0,0.,12.0
1979-07-15 18:07:05.710 ,5,0,0.,12.0,0.,12.0,0.,12.0,0.,12.0
1979-07-15 18:07:17.710 ,4,0,0.,12.0,0.,12.0,0.,12.0,0.,12.0
1979-07-15 18:07:29.710 ,4,0,0.,12.0,0.,12.0,0.,12.0,0.,12.0
1979-07-15 18:07:41.710 ,4,0,0.,12.0,0.,12.0,0.,12.0,0.,12.0
1979-07-15 18:07:53.710 ,4,0,0.,12.0,0.,12.0,0.,12.0,0.,12.0
1979-07-15 18:08:05.710 ,3,0,0.,12.0,0.,12.0,0.,12.0,0.,12.0
1979-07-15 18:08:17.710 ,3,0,0.,12.0,0.,12.0,0.,12.0,0.,12.0
1979-07-15 18:08:29.710 ,3,0,0.,12.0,0.,12.0,0.,12.0,0.,12.0
1979-07-15 18:08:41.710 ,3,0,0.,12.0,0.,12.0,0.,12.0,0.,12.0
1979-07-15 18:08:53.710 ,2,0,0.,12.0,0.,12.0,0.,12.0,0.,12.0
1979-07-15 18:09:05.710 ,2,0,0.,12.0,0.,12.0,0.,12.0,0.,12.0
1979-07-15 18:09:17.710 ,2,0,0.,12.0,0.,12.0,0.,12.0,0.,12.0
1979-07-15 18:09:29.710 ,2,0,0.,12.0,0.,12.0,0.,12.0,0.,12.0
1979-07-15 18:09:41.710 ,1,0,0.,12.0,0.,12.0,0.,12.0,0.,12.0
1979-07-15 18:09:53.710 ,1,0,0.,12.0,0.,12.0,0.,12.0,0.,12.0
1979-07-15 18:10:05.710 ,0,0,1.,12.0,0.,12.0,0.,12.0,0.,12.0
1979-07-15 18:10:17.710 ,0,0,0.,12.0,0.,12.0,0.,12.0,0.,12.0
1979-07-15 18:11:01.510 ,0,0,,0,,0,,0,,0
1979-07-15 18:11:13.510 ,0,0,0.,12.0,0.,12.0,0.,12.0,0.,12.0
1979-07-15 18:11:17.710 ,0,0,0.,12.0,0.,12.0,0.,12.0,0.,12.0
1979-07-15 18:11:29.710 ,0,0,0.,12.0,0.,12.0,0.,12.0,0.,12.0
1979-07-15 18:11:41.710 ,0,0,0.,12.0,0.,12.0,0.,12.0,0.,12.0
1979-07-15 18:11:53.710 ,0,0,0.,12.0,0.,12.0,0.,12.0,0.,12.0
1979-07-15 18:12:05.710 ,1,0,0.,12.0,0.,12.0,0.,12.0,0.,12.0
1979-07-15 18:12:17.710 ,1,0,0.,12.0,0.,12.0,0.,12.0,0.,12.0
1979-07-15 18:12:29.710 ,1,0,0.,12.0,0.,12.0,0.,12.0,0.,12.0
1979-07-15 18:12:41.710 ,1,0,0.,12.0,0.,12.0,0.,12.0,0.,12.0
1979-07-15 18:12:53.710 ,2,0,0.,12.0,0.,12.0,0.,12.0,0.,12.0
1979-07-15 18:13:05.710 ,2,0,0.,12.0,0.,12.0,0.,12.0,0.,12.0
1979-07-15 18:13:17.710 ,2,0,0.,12.0,0.,12.0,0.,12.0,0.,12.0
1979-07-15 18:13:29.710 ,2,0,0.,12.0,0.,12.0,0.,12.0,0.,12.0
1979-07-15 18:13:41.710 ,3,0,0.,12.0,0.,12.0,0.,12.0,0.,12.0
1979-07-15 18:13:53.710 ,3,0,0.,12.0,0.,12.0,0.,12.0,0.,12.0
1979-07-15 18:14:05.710 ,3,0,0.,12.0,0.,12.0,0.,12.0,0.,12.0
1979-07-15 18:14:17.710 ,3,0,0.,12.0,0.,12.0,0.,12.0,0.,12.0
1979-07-15 18:14:29.710 ,4,0,0.,12.0,0.,12.0,0.,12.0,0.,12.0
1979-07-15 18:14:41.710 ,4,0,0.,12.0,0.,12.0,0.,12.0,0.,12.0
1979-07-15 18:14:53.710 ,4,0,0.,12.0,0.,12.0,0.,12.0,0.,12.0
1979-07-15 18:15:05.710 ,4,0,0.,12.0,0.,12.0,0.,12.0,0.,12.0
1979-07-15 18:15:17.710 ,5,0,0.,12.0,0.,12.0,0.,12.0,0.,12.0
1979-07-15 18:15:29.710 ,5,0,0.,12.0,0.,12.0,0.,12.0,0.,12.0
1979-07-15 18:15:41.710 ,5,0,0.,12.0,0.,12.0,0.,12.0,0.,12.0
1979-07-15 18:15:53.710 ,5,0,0.,12.0,0.,12.0,0.,12.0,0.,12.0
1979-07-15 18:16:05.710 ,6,0,0.,12.0,0.,12.0,0.,12.0,0.,12.0
1979-07-15 18:16:17.710 ,6,0,0.,12.0,0.,12.0,0.,12.0,0.,12.0
1979-07-15 18:16:53.710 ,7,0,0.,12.0,0.,12.0,0.,12.0,0.,12.0
1979-07-15 18:17:05.710 ,7,0,0.,12.0,0.,12.0,0.,12.0,0.,12.0
1979-07-15 18:17:17.710 ,7,0,0.,12.0,0.,12.0,0.,12.0,0.,12.0
1979-07-15 18:17:29.710 ,7,0,0.,12.0,0.,12.0,0.,12.0,0.,12.0
1979-07-15 18:17:41.710 ,7,0,0.,12.0,0.,12.0,0.,12.0,0.,12.0
1979-07-15 18:17:53.710 ,7,0,0.,12.0,0.,12.0,0.,12.0,0.,12.0
1979-07-15 18:18:05.710 ,7,0,0.,12.0,0.,12.0,0.,12.0,0.,12.0
1979-07-15 18:18:17.710 ,7,0,0.,12.0,0.,12.0,0.,12.0,0.,12.0
1979-07-15 18:18:29.710 ,6,0,0.,12.0,0.,12.0,0.,12.0,0.,12.0
1979-07-15 18:18:41.710 ,6,0,0.,12.0,0.,12.0,0.,12.0,0.,12.0
1979-07-15 18:18:53.710 ,6,0,0.,12.0,0.,12.0,0.,12.0,0.,12.0
1979-07-15 18:19:05.710 ,6,0,0.,12.0,0.,12.0,0.,12.0,0.,12.0
1979-07-15 18:19:17.710 ,5,0,0.,12.0,0.,12.0,0.,12.0,0.,12.0
1979-07-15 18:19:29.710 ,5,0,0.,12.0,0.,12.0,0.,12.0,0.,12.0
1979-07-15 18:19:41.710 ,5,0,0.,12.0,0.,12.0,0.,12.0,0.,12.0
1979-07-15 18:19:53.710 ,5,0,0.,12.0,0.,12.0,0.,12.0,0.,12.0
1979-07-15 18:20:05.710 ,4,0,0.,12.0,0.,12.0,0.,12.0,0.,12.0
1979-07-15 18:20:17.710 ,4,0,0.,12.0,0.,12.0,0.,12.0,0.,12.0
1979-07-15 18:20:29.710 ,4,0,0.,12.0,0.,12.0,0.,12.0,0.,12.0
1979-07-15 18:20:41.710 ,4,0,0.,12.0,0.,12.0,0.,12.0,0.,12.0
1979-07-15 18:20:53.710 ,3,0,0.,12.0,0.,12.0,0.,12.0,0.,12.0
1979-07-15 18:21:05.710 ,3,0,0.,12.0,0.,12.0,0.,12.0,0.,12.0
1979-07-15 18:21:17.710 ,3,0,0.,12.0,0.,12.0,0.,12.0,0.,12.0
1979-07-15 18:21:29.710 ,3,0,0.,12.0,0.,12.0,0.,12.0,0.,12.0
1979-07-15 18:21:41.710 ,2,0,0.,12.0,0.,12.0,0.,12.0,0.,12.0
1979-07-15 18:21:53.710 ,2,0,0.,12.0,0.,12.0,0.,12.0,0.,12.0
1979-07-15 18:22:05.710 ,2,0,1.,12.0,0.,12.0,0.,12.0,0.,12.0
1979-07-15 18:22:17.710 ,2,0,1.,12.0,0.,12.0,0.,12.0,0.,12.0
1979-07-15 18:22:29.710 ,1,0,0.,12.0,0.,12.0,0.,12.0,0.,12.0
1979-07-15 18:22:41.710 ,1,0,0.,12.0,0.,12.0,0.,12.0,0.,12.0
1979-07-15 18:22:53.710 ,1,0,0.,12.0,0.,12.0,0.,12.0,0.,12.0
1979-07-15 18:23:05.710 ,1,0,0.,12.0,0.,12.0,0.,12.0,0.,12.0
1979-07-15 18:24:05.710 ,0,0,0.,12.0,0.,12.0,0.,12.0,0.,12.0
1979-07-15 18:24:17.710 ,0,0,0.,12.0,0.,12.0,0.,12.0,0.,12.0
1979-07-15 18:24:29.710 ,0,0,0.,12.0,0.,12.0,0.,12.0,0.,12.0
1979-07-15 18:24:41.710 ,0,0,0.,12.0,0.,12.0,0.,12.0,0.,12.0
1979-07-15 18:24:53.710 ,1,0,0.,12.0,0.,12.0,0.,12.0,0.,12.0
1979-07-15 18:25:05.710 ,1,0,0.,12.0,0.,12.0,0.,12.0,0.,12.0
1979-07-15 18:25:17.710 ,1,0,0.,12.0,0.,12.0,0.,12.0,0.,12.0
1979-07-15 18:25:29.710 ,1,0,0.,12.0,0.,12.0,0.,12.0,0.,12.0
1979-07-15 18:25:41.710 ,2,0,0.,12.0,0.,12.0,0.,12.0,0.,12.0
1979-07-15 18:25:53.710 ,2,0,1.,12.0,0.,12.0,0.,12.0,0.,12.0
1979-07-15 18:26:05.710 ,2,0,0.,12.0,0.,12.0,0.,12.0,0.,12.0
1979-07-15 18:26:17.710 ,2,0,0.,12.0,0.,12.0,0.,12.0,0.,12.0
1979-07-15 18:26:29.710 ,3,0,0.,12.0,0.,12.0,0.,12.0,0.,12.0
1979-07-15 18:26:41.710 ,3,0,0.,12.0,0.,12.0,0.,12.0,0.,12.0
1979-07-15 18:26:53.710 ,3,0,0.,12.0,0.,12.0,0.,12.0,0.,12.0
1979-07-15 18:27:05.710 ,3,0,0.,12.0,0.,12.0,0.,12.0,0.,12.0
1979-07-15 18:27:17.710 ,4,0,0.,12.0,0.,12.0,0.,12.0,0.,12.0
1979-07-15 18:27:29.710 ,4,0,0.,12.0,0.,12.0,0.,12.0,0.,12.0
1979-07-15 18:27:41.710 ,4,0,0.,12.0,0.,12.0,0.,12.0,0.,12.0
1979-07-15 18:27:53.710 ,4,0,0.,12.0,0.,12.0,0.,12.0,0.,12.0
1979-07-15 18:28:05.710 ,5,0,0.,12.0,0.,12.0,0.,12.0,0.,12.0
1979-07-15 18:28:17.710 ,5,0,0.,12.0,0.,12.0,0.,12.0,0.,12.0
1979-07-15 18:28:29.710 ,5,0,0.,12.0,0.,12.0,0.,12.0,0.,12.0
1979-07-15 18:28:41.710 ,5,0,0.,12.0,0.,12.0,0.,12.0,0.,12.0
1979-07-15 18:28:53.710 ,6,0,0.,12.0,0.,12.0,0.,12.0,0.,12.0
1979-07-15 18:29:05.710 ,6,0,0.,12.0,0.,12.0,0.,12.0,0.,12.0
1979-07-15 18:29:17.710 ,6,0,0.,12.0,0.,12.0,0.,12.0,0.,12.0
1979-07-15 18:29:29.710 ,6,0,1.,12.0,0.,12.0,0.,12.0,0.,12.0
1979-07-15 18:29:41.710 ,7,0,0.,12.0,0.,12.0,0.,12.0,0.,12.0
1979-07-15 18:29:53.710 ,7,0,0.,12.0,0.,12.0,0.,12.0,0.,12.0
1979-07-15 18:30:05.710 ,7,0,0.,12.0,0.,12.0,0.,12.0,0.,12.0
1979-07-15 18:30:17.710 ,7,0,0.,12.0,0.,12.0,0.,12.0,0.,12.0
1979-07-15 18:30:29.710 ,7,0,0.,12.0,0.,12.0,0.,12.0,0.,12.0
1979-07-15 18:30:41.710 ,7,0,0.,12.0,0.,12.0,0.,12.0,0.,12.0
1979-07-15 18:30:53.710 ,7,0,0.,12.0,0.,12.0,0.,12.0,0.,12.0
1979-07-15 18:31:05.710 ,7,0,0.,12.0,0.,12.0,0.,12.0,0.,12.0
1979-07-15 18:31:17.710 ,6,0,0.,12.0,0.,12.0,0.,12.0,0.,12.0
1979-07-15 18:31:29.710 ,6,0,0.,12.0,0.,12.0,0.,12.0,0.,12.0
1979-07-15 18:31:41.710 ,6,0,0.,12.0,0.,12.0,0.,12.0,0.,12.0
1979-07-15 18:31:53.710 ,6,0,0.,12.0,0.,12.0,0.,12.0,0.,12.0
1979-07-15 18:32:05.710 ,5,0,0.,12.0,0.,12.0,0.,12.0,0.,12.0
1979-07-15 18:32:17.710 ,5,0,0.,12.0,0.,12.0,0.,12.0,0.,12.0
1979-07-15 18:32:29.710 ,5,0,0.,12.0,0.,12.0,0.,12.0,0.,12.0
1979-07-15 18:32:41.710 ,5,0,0.,12.0,0.,12.0,0.,12.0,0.,12.0
1979-07-15 18:32:53.710 ,4,0,0.,12.0,0.,12.0,0.,12.0,0.,12.0
1979-07-15 18:33:05.710 ,4,0,0.,12.0,0.,12.0,0.,12.0,0.,12.0
1979-07-15 18:33:17.710 ,4,0,0.,12.0,0.,12.0,0.,12.0,0.,12.0
1979-07-15 18:33:29.710 ,4,0,0.,12.0,0.,12.0,0.,12.0,0.,12.0
1979-07-15 18:33:41.710 ,3,0,0.,12.0,0.,12.0,0.,12.0,0.,12.0
1979-07-15 18:33:53.710 ,3,0,0.,12.0,0.,12.0,0.,12.0,0.,12.0
1979-07-15 18:34:05.710 ,3,0,0.,12.0,0.,12.0,0.,12.0,0.,12.0
1979-07-15 18:34:17.710 ,3,0,0.,12.0,0.,12.0,0.,12.0,0.,12.0
1979-07-15 18:34:29.710 ,2,0,1.,12.0,0.,12.0,0.,12.0,0.,12.0
1979-07-15 18:34:41.710 ,2,0,0.,12.0,0.,12.0,0.,12.0,0.,12.0
1979-07-15 18:34:53.710 ,2,0,0.,12.0,0.,12.0,0.,12.0,0.,12.0
1979-07-15 18:35:05.710 ,2,0,0.,12.0,0.,12.0,0.,12.0,0.,12.0
1979-07-15 18:35:17.710 ,1,0,0.,12.0,0.,12.0,0.,12.0,0.,12.0
1979-07-15 18:35:29.710 ,1,0,1.,12.0,0.,12.0,0.,12.0,0.,12.0
1979-07-15 18:35:41.710 ,1,0,0.,12.0,0.,12.0,0.,12.0,0.,12.0
1979-07-15 18:35:53.710 ,1,0,0.,12.0,0.,12.0,0.,12.0,0.,12.0
1979-07-15 18:36:05.710 ,0,0,0.,12.0,0.,12.0,0.,12.0,0.,12.0
1979-07-15 18:36:17.710 ,0,0,0.,12.0,0.,12.0,0.,12.0,0.,12.0
1979-07-15 18:36:29.710 ,0,0,0.,12.0,0.,12.0,0.,12.0,0.,12.0
1979-07-15 18:36:41.710 ,0,0,0.,12.0,0.,12.0,0.,12.0,0.,12.0
1979-07-15 18:36:53.710 ,0,0,0.,12.0,0.,12.0,0.,12.0,0.,12.0
1979-07-15 18:37:05.710 ,0,0,0.,12.0,0.,12.0,0.,12.0,0.,12.0
1979-07-15 18:37:17.710 ,0,0,0.,12.0,0.,12.0,0.,12.0,0.,12.0
1979-07-15 18:37:29.710 ,0,0,0.,12.0,0.,12.0,0.,12.0,0.,12.0
1979-07-15 18:37:41.710 ,1,0,1.,12.0,0.,12.0,0.,12.0,0.,12.0
1979-07-15 18:37:53.710 ,1,0,0.,12.0,0.,12.0,0.,12.0,0.,12.0
1979-07-15 18:38:05.710 ,1,0,0.,12.0,0.,12.0,0.,12.0,0.,12.0
1979-07-15 18:38:17.710 ,1,0,0.,12.0,0.,12.0,0.,12.0,0.,12.0
1979-07-15 18:38:29.710 ,2,0,0.,12.0,0.,12.0,0.,12.0,0.,12.0
1979-07-15 18:38:41.710 ,2,0,0.,12.0,0.,12.0,0.,12.0,0.,12.0
1979-07-15 18:38:53.710 ,2,0,1.,12.0,0.,12.0,0.,12.0,0.,12.0
1979-07-15 18:39:05.710 ,2,0,0.,12.0,0.,12.0,0.,12.0,0.,12.0
1979-07-15 18:39:17.710 ,3,0,0.,12.0,0.,12.0,0.,12.0,0.,12.0
1979-07-15 18:39:29.710 ,3,0,0.,12.0,0.,12.0,0.,12.0,0.,12.0
1979-07-15 18:39:41.710 ,3,0,0.,12.0,0.,12.0,0.,12.0,0.,12.0
1979-07-15 18:39:53.710 ,3,0,0.,12.0,0.,12.0,0.,12.0,0.,12.0
1979-07-15 18:40:05.710 ,4,0,0.,12.0,0.,12.0,0.,12.0,0.,12.0
1979-07-15 18:40:17.710 ,4,0,0.,12.0,0.,12.0,0.,12.0,0.,12.0
1979-07-15 18:40:29.710 ,4,0,0.,12.0,0.,12.0,0.,12.0,0.,12.0
1979-07-15 18:40:41.710 ,4,0,0.,12.0,0.,12.0,0.,12.0,0.,12.0
1979-07-15 18:40:53.710 ,5,0,0.,12.0,0.,12.0,0.,12.0,0.,12.0
1979-07-15 18:41:05.710 ,5,0,0.,12.0,0.,12.0,0.,12.0,0.,12.0
1979-07-15 18:41:17.710 ,5,0,1.,12.0,0.,12.0,0.,12.0,0.,12.0
1979-07-15 18:41:29.710 ,5,0,0.,12.0,0.,12.0,0.,12.0,0.,12.0
1979-07-15 18:41:41.710 ,6,0,0.,12.0,0.,12.0,0.,12.0,0.,12.0
1979-07-15 18:41:53.710 ,6,0,0.,12.0,0.,12.0,0.,12.0,0.,12.0
1979-07-15 18:42:05.710 ,6,0,0.,12.0,0.,12.0,0.,12.0,0.,12.0
1979-07-15 18:42:17.710 ,6,0,0.,12.0,0.,12.0,0.,12.0,0.,12.0
1979-07-15 18:42:29.710 ,7,0,0.,12.0,0.,12.0,0.,12.0,0.,12.0
1979-07-15 18:42:41.710 ,7,0,0.,12.0,0.,12.0,0.,12.0,0.,12.0
1979-07-15 18:42:53.710 ,7,0,0.,12.0,0.,12.0,0.,12.0,0.,12.0
1979-07-15 18:43:05.710 ,7,0,0.,12.0,0.,12.0,0.,12.0,0.,12.0
1979-07-15 18:43:17.710 ,3,1,0.,12.0,0.,12.0,0.,12.0,0.,12.0
1979-07-15 18:43:29.710 ,3,1,0.,12.0,0.,12.0,0.,12.0,0.,12.0
1979-07-15 18:43:41.710 ,0,1,0.,12.0,0.,12.0,0.,12.0,0.,12.0
1979-07-15 18:43:53.710 ,0,1,0.,12.0,0.,12.0,0.,12.0,0.,12.0
1979-07-15 18:44:05.710 ,4,1,0.,12.0,0.,12.0,0.,12.0,0.,12.0
1979-07-15 18:44:17.710 ,4,1,0.,12.0,0.,12.0,0.,12.0,0.,12.0
1979-07-15 18:44:29.710 ,7,1,0.,12.0,0.,12.0,0.,12.0,0.,12.0
1979-07-15 18:44:41.710 ,7,1,0.,12.0,0.,12.0,0.,12.0,0.,12.0
1979-07-15 18:44:53.710 ,3,1,0.,12.0,0.,12.0,0.,12.0,0.,12.0
1979-07-15 18:45:05.710 ,3,1,0.,12.0,0.,12.0,0.,12.0,0.,12.0
1979-07-15 18:45:17.710 ,0,1,0.,12.0,0.,12.0,0.,12.0,0.,12.0
1979-07-15 18:45:29.710 ,0,1,0.,12.0,0.,12.0,0.,12.0,0.,12.0
1979-07-15 18:45:41.710 ,4,1,0.,12.0,0.,12.0,0.,12.0,0.,12.0
1979-07-15 18:45:53.710 ,4,1,0.,12.0,0.,12.0,0.,12.0,0.,12.0
1979-07-15 18:46:29.710 ,3,1,0.,12.0,0.,12.0,0.,12.0,0.,12.0
1979-07-15 18:46:41.710 ,3,1,1.,12.0,0.,12.0,0.,12.0,0.,12.0
1979-07-15 18:46:53.710 ,0,1,0.,12.0,0.,12.0,0.,12.0,0.,12.0
1979-07-15 18:47:05.710 ,0,1,0.,12.0,0.,12.0,0.,12.0,0.,12.0
1979-07-15 18:47:17.710 ,4,1,0.,12.0,0.,12.0,0.,12.0,0.,12.0
1979-07-15 18:47:29.710 ,4,1,0.,12.0,0.,12.0,0.,12.0,0.,12.0
1979-07-15 18:47:41.710 ,7,1,0.,12.0,0.,12.0,0.,12.0,0.,12.0
1979-07-15 18:47:53.710 ,7,1,0.,12.0,0.,12.0,0.,12.0,0.,12.0
1979-07-15 18:48:05.710 ,3,1,0.,12.0,0.,12.0,0.,12.0,0.,12.0
1979-07-15 18:48:17.710 ,3,1,0.,12.0,0.,12.0,0.,12.0,0.,12.0
1979-07-15 18:48:29.710 ,0,1,0.,12.0,0.,12.0,0.,12.0,0.,12.0
1979-07-15 18:48:41.710 ,0,1,0.,12.0,0.,12.0,0.,12.0,0.,12.0
1979-07-15 18:48:53.710 ,4,1,0.,12.0,0.,12.0,0.,12.0,0.,12.0
1979-07-15 18:49:05.710 ,4,1,0.,12.0,0.,12.0,0.,12.0,0.,12.0
1979-07-15 18:49:17.710 ,7,1,0.,12.0,0.,12.0,0.,12.0,0.,12.0
1979-07-15 18:49:29.710 ,7,1,0.,12.0,0.,12.0,0.,12.0,0.,12.0
1979-07-15 18:49:41.710 ,3,1,0.,12.0,0.,12.0,0.,12.0,0.,12.0
1979-07-15 18:49:53.710 ,3,1,0.,12.0,0.,12.0,0.,12.0,0.,12.0
1979-07-15 18:50:05.710 ,0,1,0.,12.0,0.,12.0,0.,12.0,0.,12.0
1979-07-15 18:50:17.710 ,0,1,0.,12.0,0.,12.0,0.,12.0,0.,12.0
1979-07-15 18:50:29.710 ,4,1,0.,12.0,0.,12.0,0.,12.0,0.,12.0
1979-07-15 18:50:41.710 ,4,1,0.,12.0,0.,12.0,0.,12.0,0.,12.0
1979-07-15 18:50:53.710 ,7,1,0.,12.0,0.,12.0,0.,12.0,0.,12.0
1979-07-15 18:51:05.710 ,7,1,0.,12.0,0.,12.0,0.,12.0,0.,12.0
1979-07-15 18:51:17.710 ,3,1,0.,12.0,0.,12.0,0.,12.0,0.,12.0
1979-07-15 18:51:29.710 ,3,1,0.,12.0,0.,12.0,0.,12.0,0.,12.0
1979-07-15 18:52:05.710 ,4,1,0.,12.0,0.,12.0,0.,12.0,0.,12.0
1979-07-15 18:52:17.710 ,4,1,0.,12.0,0.,12.0,0.,12.0,0.,12.0
1979-07-15 18:52:29.710 ,7,1,0.,12.0,0.,12.0,0.,12.0,0.,12.0
1979-07-15 18:52:41.710 ,7,1,0.,12.0,0.,12.0,0.,12.0,0.,12.0
1979-07-15 18:52:53.710 ,3,1,0.,12.0,0.,12.0,0.,12.0,0.,12.0
1979-07-15 18:53:05.710 ,3,1,0.,12.0,0.,12.0,0.,12.0,0.,12.0
1979-07-15 18:53:17.710 ,0,1,0.,12.0,0.,12.0,0.,12.0,0.,12.0
1979-07-15 18:53:29.710 ,0,1,0.,12.0,0.,12.0,0.,12.0,0.,12.0
1979-07-15 18:53:41.710 ,0,0,0.,12.0,0.,12.0,0.,12.0,0.,12.0
1979-07-15 18:53:53.710 ,0,0,0.,12.0,0.,12.0,0.,12.0,0.,12.0
1979-07-15 18:54:05.710 ,0,0,0.,12.0,0.,12.0,0.,12.0,0.,12.0
1979-07-15 18:54:17.710 ,0,0,0.,12.0,0.,12.0,0.,12.0,0.,12.0
1979-07-15 18:54:29.710 ,5,0,0.,12.0,0.,12.0,0.,12.0,0.,12.0
1979-07-15 18:54:41.710 ,5,0,0.,12.0,0.,12.0,0.,12.0,0.,12.0
1979-07-15 18:54:53.710 ,5,0,0.,12.0,0.,12.0,0.,12.0,0.,12.0
1979-07-15 18:55:05.710 ,5,0,0.,12.0,0.,12.0,0.,12.0,0.,12.0
1979-07-15 18:55:17.710 ,4,0,0.,12.0,0.,12.0,0.,12.0,0.,12.0
1979-07-15 18:55:29.710 ,4,0,0.,12.0,0.,12.0,0.,12.0,0.,12.0
1979-07-15 18:55:41.710 ,4,0,0.,12.0,0.,12.0,0.,12.0,0.,12.0
1979-07-15 18:55:53.710 ,4,0,1.,12.0,0.,12.0,0.,12.0,0.,12.0
1979-07-15 18:56:05.710 ,3,0,0.,12.0,0.,12.0,0.,12.0,0.,12.0
1979-07-15 18:56:17.710 ,3,0,0.,12.0,0.,12.0,0.,12.0,0.,12.0
1979-07-15 18:56:29.710 ,3,0,0.,12.0,0.,12.0,0.,12.0,0.,12.0
1979-07-15 18:56:41.710 ,3,0,0.,12.0,0.,12.0,0.,12.0,0.,12.0
1979-07-15 18:56:53.710 ,2,0,0.,12.0,0.,12.0,0.,12.0,0.,12.0
1979-07-15 18:57:05.710 ,2,0,0.,12.0,0.,12.0,0.,12.0,0.,12.0
1979-07-15 18:57:17.710 ,2,0,1.,12.0,0.,12.0,0.,12.0,1.,12.0
1979-07-15 18:57:29.710 ,2,0,1.,12.0,0.,12.0,0.,12.0,0.,12.0
1979-07-15 18:57:41.710 ,1,0,0.,12.0,0.,12.0,0.,12.0,0.,12.0
1979-07-15 18:57:53.710 ,1,0,0.,12.0,0.,12.0,0.,12.0,0.,12.0
1979-07-15 18:58:05.710 ,1,0,0.,12.0,0.,12.0,0.,12.0,0.,12.0
1979-07-15 18:58:17.710 ,1,0,0.,12.0,0.,12.0,0.,12.0,0.,12.0
1979-07-15 18:58:29.710 ,0,0,0.,12.0,0.,12.0,0.,12.0,0.,12.0
1979-07-15 18:58:41.710 ,0,0,0.,12.0,0.,12.0,0.,12.0,0.,12.0
1979-07-15 18:58:53.710 ,0,0,0.,12.0,0.,12.0,0.,12.0,0.,12.0
1979-07-15 18:59:05.710 ,0,0,0.,12.0,0.,12.0,0.,12.0,0.,12.0
1979-07-15 18:59:17.710 ,0,0,0.,12.0,0.,12.0,0.,12.0,0.,12.0
1979-07-15 18:59:29.710 ,0,0,0.,12.0,0.,12.0,0.,12.0,0.,12.0
1979-07-15 18:59:41.710 ,0,0,0.,12.0,0.,12.0,0.,12.0,0.,12.0
1979-07-15 18:59:53.710 ,0,0,0.,12.0,0.,12.0,0.,12.0,0.,12.0
1979-07-15 19:00:05.710 ,1,0,0.,12.0,0.,12.0,0.,12.0,0.,12.0
1979-07-15 19:00:17.710 ,1,0,0.,12.0,0.,12.0,0.,12.0,0.,12.0
1979-07-15 19:00:29.710 ,1,0,0.,12.0,0.,12.0,0.,12.0,0.,12.0
1979-07-15 19:00:41.710 ,1,0,0.,12.0,0.,12.0,0.,12.0,0.,12.0
1979-07-15 19:01:17.710 ,2,0,0.,12.0,0.,12.0,0.,12.0,0.,12.0
1979-07-15 19:01:29.710 ,2,0,0.,12.0,0.,12.0,0.,12.0,0.,12.0
1979-07-15 19:01:41.710 ,3,0,0.,12.0,0.,12.0,0.,12.0,0.,12.0
1979-07-15 19:01:53.710 ,3,0,0.,12.0,0.,12.0,0.,12.0,0.,12.0
1979-07-15 19:02:05.710 ,3,0,0.,12.0,0.,12.0,0.,12.0,0.,12.0
1979-07-15 19:02:17.710 ,3,0,0.,12.0,0.,12.0,0.,12.0,0.,12.0
1979-07-15 19:02:29.710 ,4,0,0.,12.0,0.,12.0,0.,12.0,0.,12.0
1979-07-15 19:02:41.710 ,4,0,0.,12.0,0.,12.0,0.,12.0,0.,12.0
1979-07-15 19:02:53.710 ,4,0,0.,12.0,0.,12.0,0.,12.0,0.,12.0
1979-07-15 19:03:05.710 ,4,0,0.,12.0,0.,12.0,0.,12.0,0.,12.0
1979-07-15 19:03:17.710 ,5,0,0.,12.0,0.,12.0,0.,12.0,0.,12.0
1979-07-15 19:03:29.710 ,5,0,0.,12.0,0.,12.0,0.,12.0,0.,12.0
1979-07-15 19:03:41.710 ,5,0,0.,12.0,0.,12.0,0.,12.0,0.,12.0
1979-07-15 19:03:53.710 ,5,0,0.,12.0,0.,12.0,0.,12.0,0.,12.0
1979-07-15 19:04:05.710 ,6,0,0.,12.0,0.,12.0,0.,12.0,0.,12.0
1979-07-15 19:04:17.710 ,6,0,0.,12.0,0.,12.0,0.,12.0,0.,12.0
1979-07-15 19:04:29.710 ,6,0,0.,12.0,0.,12.0,0.,12.0,0.,12.0
1979-07-15 19:04:41.710 ,6,0,0.,12.0,0.,12.0,0.,12.0,0.,12.0
1979-07-15 19:04:53.710 ,7,0,0.,12.0,0.,12.0,0.,12.0,0.,12.0
1979-07-15 19:05:05.710 ,7,0,0.,12.0,0.,12.0,0.,12.0,0.,12.0
1979-07-15 19:05:17.710 ,7,0,0.,12.0,0.,12.0,0.,12.0,0.,12.0
1979-07-15 19:05:29.710 ,7,0,0.,12.0,0.,12.0,0.,12.0,0.,12.0
1979-07-15 19:05:41.710 ,7,0,0.,12.0,0.,12.0,0.,12.0,0.,12.0
1979-07-15 19:05:53.710 ,7,0,0.,12.0,0.,12.0,0.,12.0,0.,12.0
1979-07-15 19:06:05.710 ,7,0,0.,12.0,0.,12.0,0.,12.0,0.,12.0
1979-07-15 19:06:17.710 ,7,0,0.,12.0,0.,12.0,0.,12.0,0.,12.0
1979-07-15 19:06:29.710 ,6,0,0.,12.0,0.,12.0,0.,12.0,0.,12.0
1979-07-15 19:06:41.710 ,6,0,0.,12.0,0.,12.0,0.,12.0,0.,12.0
1979-07-15 19:06:53.710 ,6,0,0.,12.0,0.,12.0,0.,12.0,0.,12.0
1979-07-15 19:07:05.710 ,6,0,0.,12.0,0.,12.0,0.,12.0,0.,12.0
1979-07-15 19:07:17.710 ,5,0,0.,12.0,0.,12.0,0.,12.0,0.,12.0
1979-07-15 19:07:29.710 ,5,0,0.,12.0,0.,12.0,0.,12.0,0.,12.0
1979-07-15 19:07:41.710 ,5,0,0.,12.0,0.,12.0,0.,12.0,0.,12.0
1979-07-15 19:07:53.710 ,5,0,0.,12.0,0.,12.0,0.,12.0,0.,12.0
1979-07-15 19:08:05.710 ,4,0,0.,12.0,0.,12.0,0.,12.0,0.,12.0
1979-07-15 19:08:17.710 ,4,0,0.,12.0,0.,12.0,0.,12.0,0.,12.0
1979-07-15 19:08:29.710 ,4,0,0.,12.0,0.,12.0,0.,12.0,0.,12.0
1979-07-15 19:08:41.710 ,4,0,0.,12.0,0.,12.0,0.,12.0,0.,12.0
1979-07-15 19:08:53.710 ,3,0,0.,12.0,0.,12.0,0.,12.0,0.,12.0
1979-07-15 19:09:05.710 ,3,0,0.,12.0,0.,12.0,0.,12.0,0.,12.0
1979-07-15 19:09:41.710 ,2,0,0.,12.0,0.,12.0,0.,12.0,0.,12.0
1979-07-15 19:09:53.710 ,2,0,0.,12.0,0.,12.0,0.,12.0,0.,12.0
1979-07-15 19:10:05.710 ,2,0,0.,12.0,0.,12.0,0.,12.0,0.,12.0
1979-07-15 19:10:17.710 ,2,0,1.,12.0,0.,12.0,0.,12.0,0.,12.0
1979-07-15 19:10:29.710 ,1,0,0.,12.0,0.,12.0,0.,12.0,0.,12.0
1979-07-15 19:10:41.710 ,1,0,0.,12.0,0.,12.0,0.,12.0,0.,12.0
1979-07-15 19:10:53.710 ,1,0,1.,12.0,0.,12.0,0.,12.0,0.,12.0
1979-07-15 19:11:05.710 ,1,0,0.,12.0,0.,12.0,0.,12.0,0.,12.0
1979-07-15 19:11:17.710 ,0,0,0.,12.0,0.,12.0,0.,12.0,0.,12.0
1979-07-15 19:11:29.710 ,0,0,0.,12.0,0.,12.0,0.,12.0,0.,12.0
1979-07-15 19:11:41.710 ,0,0,0.,12.0,0.,12.0,0.,12.0,0.,12.0
1979-07-15 19:11:53.710 ,0,0,0.,12.0,0.,12.0,0.,12.0,0.,12.0
1979-07-15 19:12:05.710 ,0,0,0.,12.0,0.,12.0,0.,12.0,0.,12.0
1979-07-15 19:12:17.710 ,0,0,0.,12.0,0.,12.0,0.,12.0,0.,12.0
1979-07-15 19:12:29.710 ,0,0,0.,12.0,0.,12.0,0.,12.0,0.,12.0
1979-07-15 19:12:41.710 ,0,0,0.,12.0,0.,12.0,0.,12.0,0.,12.0
1979-07-15 19:12:53.710 ,1,0,0.,12.0,0.,12.0,0.,12.0,0.,12.0
1979-07-15 19:13:05.710 ,1,0,0.,12.0,0.,12.0,0.,12.0,0.,12.0
1979-07-15 19:13:17.710 ,1,0,0.,12.0,0.,12.0,0.,12.0,0.,12.0
1979-07-15 19:13:29.710 ,1,0,0.,12.0,0.,12.0,0.,12.0,0.,12.0
1979-07-15 19:13:41.710 ,2,0,0.,12.0,0.,12.0,0.,12.0,0.,12.0
1979-07-15 19:13:53.710 ,2,0,0.,12.0,0.,12.0,0.,12.0,0.,12.0
1979-07-15 19:14:05.710 ,2,0,0.,12.0,0.,12.0,0.,12.0,0.,12.0
1979-07-15 19:14:17.710 ,2,0,0.,12.0,0.,12.0,0.,12.0,0.,12.0
1979-07-15 19:14:29.710 ,3,0,0.,12.0,0.,12.0,0.,12.0,0.,12.0
1979-07-15 19:14:41.710 ,3,0,0.,12.0,0.,12.0,0.,12.0,0.,12.0
1979-07-15 19:14:53.710 ,3,0,0.,12.0,0.,12.0,0.,12.0,0.,12.0
1979-07-15 19:15:05.710 ,3,0,0.,12.0,0.,12.0,0.,12.0,0.,12.0
1979-07-15 19:15:17.710 ,4,0,0.,12.0,0.,12.0,0.,12.0,0.,12.0
1979-07-15 19:15:29.710 ,4,0,0.,12.0,0.,12.0,0.,12.0,0.,12.0
1979-07-15 19:15:41.710 ,4,0,0.,12.0,0.,12.0,0.,12.0,0.,12.0
1979-07-15 19:15:53.710 ,4,0,1.,12.0,0.,12.0,0.,12.0,0.,12.0
1979-07-15 19:16:05.710 ,5,0,0.,12.0,0.,12.0,0.,12.0,0.,12.0
1979-07-15 19:16:17.710 ,5,0,0.,12.0,0.,12.0,0.,12.0,0.,12.0
1979-07-15 19:16:29.710 ,5,0,0.,12.0,0.,12.0,0.,12.0,0.,12.0
1979-07-15 19:16:41.710 ,5,0,0.,12.0,0.,12.0,0.,12.0,0.,12.0
1979-07-15 19:16:53.710 ,6,0,0.,12.0,0.,12.0,0.,12.0,0.,12.0
1979-07-15 19:17:05.710 ,6,0,0.,12.0,0.,12.0,0.,12.0,0.,12.0
1979-07-15 19:17:17.710 ,6,0,0.,12.0,0.,12.0,0.,12.0,0.,12.0
1979-07-15 19:17:29.710 ,6,0,0.,12.0,0.,12.0,0.,12.0,0.,12.0
1979-07-15 19:17:41.710 ,7,0,0.,12.0,0.,12.0,0.,12.0,0.,12.0
1979-07-15 19:17:53.710 ,7,0,0.,12.0,0.,12.0,0.,12.0,0.,12.0
1979-07-15 19:18:05.710 ,7,0,0.,12.0,0.,12.0,0.,12.0,0.,12.0
1979-07-15 19:18:17.710 ,7,0,0.,12.0,0.,12.0,0.,12.0,0.,12.0
1979-07-15 19:18:29.710 ,7,0,0.,12.0,0.,12.0,0.,12.0,0.,12.0
1979-07-15 19:18:41.710 ,7,0,0.,12.0,0.,12.0,0.,12.0,0.,12.0
1979-07-15 19:18:53.710 ,7,0,0.,12.0,0.,12.0,0.,12.0,0.,12.0
1979-07-15 19:19:05.710 ,7,0,0.,12.0,0.,12.0,0.,12.0,0.,12.0
1979-07-15 19:19:17.710 ,0,0,0.,12.0,0.,12.0,0.,12.0,0.,12.0
1979-07-15 19:19:29.710 ,0,0,,0,,0,,0,,0
1979-07-15 19:19:41.710 ,0,0,,0,,0,,0,,0
1979-07-15 19:19:53.710 ,0,0,,0,,0,,0,,0
1979-07-15 19:19:41.710 ,6,0,0.,12.0,0.,12.0,0.,12.0,0.,12.0
1979-07-15 19:19:53.710 ,6,0,0.,12.0,0.,12.0,0.,12.0,0.,12.0
1979-07-15 19:20:05.710 ,5,0,0.,12.0,0.,12.0,0.,12.0,0.,12.0
1979-07-15 19:20:17.710 ,5,0,0.,12.0,0.,12.0,0.,12.0,0.,12.0
1979-07-15 19:20:29.710 ,5,0,0.,12.0,0.,12.0,0.,12.0,0.,12.0
1979-07-15 19:20:41.710 ,5,0,0.,12.0,0.,12.0,0.,12.0,1.,12.0
1979-07-15 19:20:53.710 ,4,0,0.,12.0,0.,12.0,0.,12.0,0.,12.0